Location: Newark
(34.1333°N, 7.9667°W)
Time: 11:36:13
(UTC+00:00)

Altair - All Passes

Search period start: 13 June 2021 00:00
Search period end: 23 June 2021 00:00
Orbit: 1501 x 1683 km, 47.2° (Epoch: 12 June)

Date Brightness Start Highest point End Pass type
(mag) Time Alt. Az. Time Alt. Az. Time Alt. Az.
13 Jun - 01:06:24 10° WSW 01:08:33 11° WSW 01:10:41 10° SW visible
13 Jun - 12:08:47 10° SSE 12:13:12 14° ESE 12:17:38 10° E daylight
13 Jun - 14:07:15 10° SW 14:16:28 64° SE 14:26:06 10° ENE daylight
13 Jun - 16:12:14 10° W 16:21:33 53° NNW 16:31:15 10° NE daylight
13 Jun - 18:19:21 10° WNW 18:28:20 38° N 18:37:34 10° ENE daylight
13 Jun - 20:25:12 10° NW 20:35:03 58° NNE 20:45:02 10° ESE visible
13 Jun - 22:30:15 10° WNW 22:40:05 58° SW 22:49:55 10° SSE visible
14 Jun - 00:39:31 10° W 00:43:29 13° WSW 00:47:26 10° SW visible
14 Jun - 11:45:01 10° SE 11:48:09 12° ESE 11:51:18 10° E daylight
14 Jun - 13:42:14 10° SSW 13:51:20 59° SE 14:00:49 10° ENE daylight
14 Jun - 15:46:56 10° WSW 15:56:15 56° NNW 16:05:59 10° NE daylight
14 Jun - 17:54:01 10° WNW 18:02:57 38° N 18:12:09 10° ENE daylight
14 Jun - 19:59:58 10° NW 20:09:45 55° NNE 20:19:40 10° E visible
14 Jun - 22:05:00 10° WNW 22:14:55 63° SW 22:24:52 10° SE visible
15 Jun - 00:13:19 10° W 00:18:24 15° WSW 00:23:30 10° SSW visible
15 Jun - 13:17:15 10° SSW 13:26:13 53° SE 13:35:31 10° ENE daylight
15 Jun - 15:21:38 10° WSW 15:30:59 59° NNW 15:40:44 10° NE daylight
15 Jun - 17:28:40 10° WNW 17:37:35 38° N 17:46:46 10° ENE daylight
15 Jun - 19:34:45 10° NW 19:44:25 52° NNE 19:54:16 10° E daylight
15 Jun - 21:39:44 10° WNW 21:49:43 68° SW 21:59:46 10° SE visible
15 Jun - 23:47:24 10° W 23:53:19 17° WSW 23:59:15 10° SSW visible
16 Jun - 12:52:18 10° SSW 13:01:06 49° SE 13:10:13 10° ENE daylight
16 Jun - 14:56:22 10° WSW 15:05:43 62° NNW 15:15:29 10° NE daylight
16 Jun - 17:03:19 10° WNW 17:12:12 38° N 17:21:23 10° ENE daylight
16 Jun - 19:09:32 10° NW 19:19:06 50° NNE 19:28:52 10° E daylight
16 Jun - 21:14:30 10° WNW 21:24:32 74° SW 21:34:38 10° SE visible
16 Jun - 23:21:38 10° W 23:28:14 20° SW 23:34:51 10° SSW visible
17 Jun - 12:27:23 10° SSW 12:36:00 44° SE 12:44:54 10° ENE daylight
17 Jun - 14:31:07 10° WSW 14:40:28 66° NNW 14:50:14 10° NE daylight
17 Jun - 16:37:58 10° WNW 16:46:50 39° N 16:56:00 10° ENE daylight
17 Jun - 18:44:18 10° NW 18:53:46 48° NNE 19:03:27 10° E daylight
17 Jun - 20:49:17 10° NW 20:59:19 79° SW 21:09:29 10° SE visible
17 Jun - 22:55:59 10° W 23:03:09 22° SW 23:10:20 10° S visible
18 Jun - 12:02:30 10° SSW 12:10:54 40° SE 12:19:33 10° ENE daylight
18 Jun - 14:05:53 10° WSW 14:15:13 70° NNW 14:25:00 10° NE daylight
18 Jun - 16:12:37 10° WNW 16:21:28 39° N 16:30:38 10° ENE daylight
18 Jun - 18:19:04 10° NW 18:28:26 46° NNE 18:38:02 10° E daylight
18 Jun - 20:24:03 10° NW 20:34:06 84° SW 20:44:18 10° SE visible
18 Jun - 22:30:25 10° WNW 22:38:03 25° SW 22:45:43 10° S visible
19 Jun - 11:37:40 10° SSW 11:45:49 36° SE 11:54:12 10° ENE daylight
19 Jun - 13:40:39 10° WSW 13:49:59 74° NNW 13:59:46 10° NE daylight
19 Jun - 15:47:17 10° WNW 15:56:07 40° N 16:05:17 10° ENE daylight
19 Jun - 17:53:49 10° NW 18:03:05 44° NNE 18:12:37 10° E daylight
19 Jun - 19:58:51 10° NW 20:08:53 90° SW 20:19:06 10° SE visible
19 Jun - 22:04:54 10° WNW 22:12:56 28° SW 22:21:01 10° S visible
20 Jun - 11:12:52 10° S 11:20:44 33° SE 11:28:48 10° ENE daylight
20 Jun - 13:15:27 10° WSW 13:24:47 79° NW 13:34:32 10° NE daylight
20 Jun - 15:21:56 10° W 15:30:46 41° NNW 15:39:57 10° ENE daylight
20 Jun - 17:28:34 10° NW 17:37:45 43° NNE 17:47:11 10° E daylight
20 Jun - 19:33:40 10° NW 19:43:40 85° NE 19:53:52 10° SE daylight
20 Jun - 21:39:28 10° WNW 21:47:49 31° SW 21:56:16 10° S visible
21 Jun - 10:48:08 10° S 10:55:40 29° SE 11:03:23 10° ENE daylight
21 Jun - 12:50:16 10° SW 12:59:35 84° NW 13:09:18 10° NE daylight
21 Jun - 14:56:35 10° W 15:05:25 42° NNW 15:14:37 10° NE daylight
21 Jun - 17:03:19 10° NW 17:12:24 41° NNE 17:21:44 10° E daylight
21 Jun - 19:08:28 10° NW 19:18:25 80° NE 19:28:36 10° ESE daylight
21 Jun - 21:14:03 10° WNW 21:22:42 34° SW 21:31:28 10° S visible
22 Jun - 10:23:26 10° S 10:30:37 26° SE 10:37:55 10° ENE daylight
22 Jun - 12:25:07 10° SW 12:34:24 89° NW 12:44:04 10° NE daylight
22 Jun - 14:31:13 10° W 14:40:05 43° NNW 14:49:19 10° NE daylight
22 Jun - 16:38:03 10° WNW 16:47:02 40° N 16:56:18 10° ENE daylight
22 Jun - 18:43:16 10° NW 18:53:11 75° NNE 19:03:20 10° ESE daylight
22 Jun - 20:48:41 10° WNW 20:57:34 38° SW 21:06:36 10° SSE visible
